EW4885 Weather Reports


Display with metric or nautical units.
time (UTC)temp
F
wind
direction
speed
MPH
gust
MPH
rain 1hr
in
rain 24hr
in
rain mn
in
humidity
%
barometer
mb
20260906134515 88 289 1.0 7.0 0.00 0.00 0.00 40 1019.6
20260906133012 88 240 4.0 9.0 0.00 0.00 0.00 41 1019.8
20260906131511 87 210 3.0 8.0 0.00 0.00 0.00 43 1019.8
20260906130011 86 289 3.0 8.0 0.00 0.00 0.00 45 1019.9
20260906124504 86 228 2.0 8.0 0.00 0.00 0.00 47 1020.1
20260906123008 85 238 5.0 8.0 0.00 0.00 0.00 47 1020.4
20260906121600 84 217 3.0 5.0 0.00 0.00 0.00 50 1020.4
20260906120058 83 174 2.0 7.0 0.00 0.00 0.00 49 1020.5
20260906114558 83 55 1.0 6.0 0.00 0.00 0.00 50 1020.5
20260906113058 83 146 2.0 6.0 0.00 0.00 0.00 51 1020.7
20260906111554 81 104 2.0 5.0 0.00 0.00 0.00 52 1020.8
20260906110057 80 109 3.0 6.0 0.00 0.00 0.00 56 1021.0
20260906104543 80 229 0.0 4.0 0.00 0.00 0.00 58 1021.3
20260906103040 79 140 1.0 4.0 0.00 0.00 0.00 58 1021.5
20260906101537 77 141 1.0 6.0 0.00 0.00 0.00 61 1021.8
20260906100035 75 231 1.0 4.0 0.00 0.00 0.00 63 1022.0
20260906094528 75 316 1.0 5.0 0.00 0.00 0.00 65 1022.1
20260906093042 74 274 2.0 4.0 0.00 0.00 0.00 66 1022.2
20260906091521 73 16 0.0 4.0 0.00 0.00 0.00 66 1022.4
20260906090020 72 133 0.0 4.0 0.00 0.00 0.00 68 1022.5
20260906084517 70 281 2.0 7.0 0.00 0.00 0.00 69 1022.6
20260906083012 69 261 1.0 6.0 0.00 0.00 0.00 72 1022.7
20260906081504 68 253 2.0 6.0 0.00 0.00 0.00 74 1022.8
20260906080108 67 246 2.0 4.0 0.00 0.00 0.00 76 1022.6
20260906074600 66 109 0.0 0.0 0.00 0.00 0.00 76 1022.5
20260906073010 64 27 0.0 0.0 0.00 0.00 0.00 77 1022.5
20260906071505 62 49 0.0 0.0 0.00 0.00 0.00 80 1022.6
20260906070002 61 40 0.0 0.0 0.00 0.00 0.00 82 1022.7
20260906064559 60 301 0.0 3.0 0.00 0.00 0.00 83 1022.8
20260906063057 60 335 1.0 3.0 0.00 0.00 0.00 84 1022.6
20260906061601 59 301 0.0 0.0 0.00 0.00 0.00 86 1022.6
20260906060050 59 323 0.0 0.0 0.00 0.00 0.00 87 1022.4
20260906054547 58 310 0.0 0.0 0.00 0.00 0.00 89 1022.2
20260906053052 58 310 0.0 0.0 0.00 0.00 0.00 89 1022.1
20260906051542 58 307 1.0 3.0 0.00 0.00 0.00 90 1022.1
20260906050042 58 304 1.0 3.0 0.00 0.00 0.00 90 1021.8
20260906044539 59 273 1.0 4.0 0.00 0.00 0.00 89 1021.8
20260906043038 59 302 0.0 0.0 0.00 0.00 0.00 89 1021.7
20260906041546 60 289 1.0 3.0 0.00 0.00 0.00 89 1021.7
20260906040035 60 342 0.0 3.0 0.00 0.00 0.00 89 1021.7
20260906034541 60 5 1.0 2.0 0.00 0.00 0.00 89 1021.8
20260906033035 61 5 1.0 3.0 0.00 0.00 0.00 88 1021.8
20260906031536 61 5 0.0 3.0 0.00 0.00 0.00 87 1021.9
20260906030034 61 338 2.0 4.0 0.00 0.00 0.00 87 1021.9
20260906024528 62 322 2.0 5.0 0.00 0.00 0.00 88 1022.0
20260906023027 62 309 3.0 5.0 0.00 0.00 0.00 89 1022.0
20260906021526 62 269 2.0 4.0 0.00 0.00 0.00 89 1022.0
20260906020024 62 319 0.0 0.0 0.00 0.00 0.00 88 1021.9
20260906014538 63 319 0.0 0.0 0.00 0.00 0.00 88 1021.9
20260906013023 63 338 0.0 0.0 0.00 0.00 0.00 87 1021.8
20260906011517 64 15 0.0 2.0 0.00 0.00 0.00 86 1021.8
20260906010035 64 5 2.0 4.0 0.00 0.00 0.00 86 1021.8
20260906004514 65 341 3.0 6.0 0.00 0.00 0.00 85 1021.6
20260906003013 65 351 2.0 4.0 0.00 0.00 0.00 85 1021.7
20260906001511 65 304 2.0 3.0 0.00 0.00 0.00 84 1021.8
20260906000011 65 319 3.0 5.0 0.00 0.00 0.00 85 1021.8
20260905234510 65 320 2.0 4.0 0.00 0.00 0.00 85 1021.9
20260905233010 65 306 1.0 3.0 0.00 0.00 0.00 84 1022.1
20260905231506 66 338 0.0 0.0 0.00 0.00 0.00 83 1021.9
20260905230004 66 338 0.0 0.0 0.00 0.00 0.00 82 1022.1
20260905224502 67 338 0.0 0.0 0.00 0.00 0.00 81 1022.1
20260905223058 68 338 0.0 3.0 0.00 0.00 0.00 79 1022.1
20260905221557 68 333 2.0 4.0 0.00 0.00 0.00 79 1021.9
20260905220055 68 316 3.0 6.0 0.00 0.00 0.00 79 1021.9
20260905214554 69 314 1.0 3.0 0.00 0.00 0.00 78 1021.9
20260905213057 69 324 2.0 4.0 0.00 0.00 0.00 77 1021.9
20260905211553 70 337 1.0 3.0 0.00 0.00 0.00 75 1021.9
20260905210056 71 337 0.0 3.0 0.00 0.00 0.00 74 1022.1
20260905204552 71 350 1.0 5.0 0.00 0.00 0.00 73 1022.2
20260905203058 72 25 2.0 4.0 0.00 0.00 0.00 72 1022.1
20260905201602 73 12 2.0 5.0 0.00 0.00 0.00 71 1022.1
20260905200055 73 13 2.0 6.0 0.00 0.00 0.00 69 1022.0
20260905194509 74 23 3.0 8.0 0.00 0.00 0.00 68 1021.9
20260905193015 74 26 4.0 7.0 0.00 0.00 0.00 67 1021.9
20260905191520 75 23 2.0 8.0 0.00 0.00 0.00 66 1021.7
20260905190008 76 17 5.0 8.0 0.00 0.00 0.00 65 1021.7
20260905184508 76 13 3.0 7.0 0.00 0.00 0.00 64 1021.7
20260905183006 77 19 5.0 8.0 0.00 0.00 0.00 63 1021.5
20260905181506 78 15 5.0 10.0 0.00 0.00 0.00 61 1021.3
20260905180006 79 343 5.0 11.0 0.00 0.00 0.00 60 1021.2
20260905174505 80 350 7.0 11.0 0.00 0.00 0.00 57 1021.1
20260905173005 81 346 6.0 11.0 0.00 0.00 0.00 56 1021.0
20260905171504 82 5 6.0 10.0 0.00 0.00 0.00 55 1021.0
20260905170004 82 5 6.0 11.0 0.00 0.00 0.00 54 1020.9
20260905164503 83 39 7.0 14.0 0.00 0.00 0.00 51 1020.9
20260905163002 84 9 5.0 11.0 0.00 0.00 0.00 49 1020.9
20260905161505 84 29 7.0 14.0 0.00 0.00 0.00 49 1020.9
20260905160003 85 335 6.0 15.0 0.00 0.00 0.00 48 1020.8
20260905154501 85 331 4.0 9.0 0.00 0.00 0.00 45 1020.7
20260905153000 85 330 3.0 7.0 0.00 0.00 0.00 44 1020.7
20260905151600 87 236 3.0 8.0 0.00 0.00 0.00 43 1020.9
20260905150101 87 261 3.0 6.0 0.00 0.00 0.00 42 1021.0
20260905144559 87 309 4.0 8.0 0.00 0.00 0.00 44 1020.9
20260905143058 86 319 4.0 7.0 0.00 0.00 0.00 44 1021.0
20260905141559 87 279 4.0 9.0 0.00 0.00 0.00 43 1021.1
20260905140112 87 249 2.0 7.0 0.00 0.00 0.00 43 1021.0